Theta_e
353 352 351 351 350 348 346 342 342 345 348 349 350 351 351 351 351 352 352 352 352 351 350 349 350 351 351 352 352 353 352 349 349 350 346 343 345 347 349 349 346 345 348 349 350 353 353 350 349 351 351 352 353 353 352 352 353 354 355 355 355 355 357 357 357 357 356 353 351 347 345 344 343 344 346 345 345 344 343 347 348 349 351 351 351
353 353 353 352 351 350 349 348 347 348 349 350 351 351 352 352 351 351 352 352 352 352 352 352 351 350 351 352 351 351 350 346 346 350 350 348 347 349 350 349 345 345 345 344 344 348 351 349 349 351 353 354 355 354 352 351 351 352 353 354 354 354 356 358 356 356 356 354 351 347 345 345 345 346 348 348 349 349 348 349 348 348 350 350 349
354 354 352 352 352 351 350 351 350 350 351 352 352 352 352 352 351 351 352 353 352 352 352 352 352 351 350 350 349 347 347 346 348 350 350 348 347 349 352 353 351 349 348 348 347 349 351 352 352 354 354 355 356 355 353 353 352 353 352 352 352 352 353 355 356 354 353 352 350 347 345 345 346 347 348 349 351 351 352 350 346 347 350 351 350
355 354 351 350 352 353 352 351 351 352 351 352 353 352 352 352 353 352 352 352 353 353 352 353 352 350 347 347 346 345 346 347 349 351 351 349 348 349 350 350 350 350 351 351 350 351 352 353 354 354 354 355 356 355 354 354 354 353 353 352 352 351 351 352 353 353 352 352 351 349 348 348 349 349 349 350 351 352 353 353 351 351 351 351 351
355 354 350 349 350 352 353 353 352 352 352 351 352 352 351 352 352 353 352 352 353 354 354 353 352 350 349 350 350 348 348 348 349 351 353 354 354 353 353 351 349 349 350 349 348 349 350 352 353 354 354 356 357 355 355 355 355 354 353 353 352 351 351 351 351 352 352 351 350 350 350 351 351 352 351 351 351 351 352 354 355 355 351 347 349
352 351 349 349 348 347 350 353 353 353 353 352 351 351 351 351 352 353 353 353 353 354 354 354 354 352 351 351 353 352 350 350 349 349 352 355 355 355 355 354 353 353 352 352 352 351 352 353 354 354 355 355 356 356 356 355 354 354 353 353 351 350 351 350 350 352 353 352 351 351 351 352 352 353 353 353 352 352 354 353 353 354 350 345 346
348 347 348 349 347 344 346 350 353 354 353 353 352 352 351 350 351 352 353 353 353 353 354 354 355 355 353 352 353 354 352 351 349 347 349 354 355 355 355 355 356 355 354 354 355 354 354 355 355 356 356 356 356 356 356 355 354 354 354 353 351 351 350 346 346 349 351 351 351 351 350 350 352 353 353 354 354 355 356 354 352 351 348 344 346
348 347 348 349 348 347 345 346 349 351 353 353 353 352 352 351 351 353 354 354 353 353 353 354 354 355 355 354 354 355 355 353 351 349 349 352 354 355 356 355 355 355 355 355 355 355 355 355 355 355 355 356 357 355 355 356 355 355 354 350 348 349 348 344 343 347 349 350 350 350 349 351 353 354 353 354 356 357 355 352 351 350 348 347 350
348 348 348 348 348 348 348 345 345 347 349 350 350 351 353 352 352 353 354 354 354 353 353 354 354 354 355 355 355 355 355 355 355 354 352 353 355 355 356 356 355 355 355 355 355 355 355 355 355 354 353 354 353 351 350 349 350 354 353 349 348 349 348 346 345 347 348 349 351 351 350 352 352 351 351 351 352 354 354 350 349 350 350 350 351
347 348 348 349 349 349 349 348 346 345 346 346 345 348 352 354 354 354 355 355 354 354 354 354 355 355 355 355 356 355 355 355 355 354 352 353 354 355 356 356 357 356 354 353 352 351 350 350 348 348 351 353 351 350 349 347 347 350 352 352 351 350 349 348 348 349 350 351 351 351 350 349 348 347 348 348 349 353 353 349 348 349 349 350 351
346 347 347 348 349 349 349 350 348 346 347 346 346 346 348 351 353 354 355 355 353 353 354 354 354 355 355 355 355 354 354 354 353 352 351 352 352 354 355 356 357 356 353 351 350 349 349 350 348 348 351 353 353 351 350 352 351 350 350 351 351 350 350 349 347 348 350 351 351 350 348 348 347 348 349 349 349 350 348 346 348 350 350 351 352
348 348 349 349 349 349 349 350 349 348 347 347 347 346 346 347 348 349 351 354 353 352 352 353 353 354 354 354 354 353 353 353 352 351 351 351 351 352 353 354 355 355 354 353 352 352 353 353 352 352 353 353 352 349 346 349 351 352 352 351 350 350 350 348 347 347 348 351 351 351 350 349 350 350 349 347 345 343 343 346 349 351 352 352 351
347 349 350 351 352 352 352 351 351 350 349 347 346 346 346 347 347 346 347 350 352 353 353 353 353 353 354 354 355 355 354 352 352 352 352 352 352 352 352 352 351 352 352 352 351 352 353 352 351 351 350 350 350 349 346 346 348 350 351 351 351 351 348 348 347 347 348 350 351 352 351 349 348 347 344 342 341 342 345 348 349 351 352 350 349
346 347 349 352 354 354 355 354 353 352 351 350 348 346 346 346 347 347 346 346 347 349 352 354 355 354 354 355 355 355 353 351 351 352 352 352 351 351 352 352 351 349 350 350 351 352 352 351 350 350 350 349 349 349 349 348 348 347 347 348 349 347 345 347 347 345 346 347 348 352 352 348 346 345 343 342 343 345 347 348 348 349 349 347 346
348 347 348 352 354 354 355 355 355 354 353 352 351 349 347 347 346 347 347 346 345 346 349 352 355 355 355 355 354 354 354 352 351 350 350 350 349 349 350 351 351 350 349 350 350 349 348 349 350 349 349 349 348 348 348 348 348 347 346 348 349 348 347 349 349 346 345 346 349 352 352 349 347 346 345 345 345 347 348 347 347 346 344 343 342
352 351 351 353 353 352 353 354 355 356 355 354 354 352 351 350 349 347 347 347 347 347 346 349 351 352 353 353 353 353 353 351 350 350 349 348 347 347 347 347 348 349 348 349 350 350 351 353 351 348 347 347 346 345 346 346 347 347 347 349 351 351 350 350 350 348 346 346 347 349 349 348 347 347 346 346 346 347 346 346 345 342 341 341 338
353 353 353 352 352 352 352 352 353 354 353 352 352 351 351 352 351 349 348 348 348 348 346 347 348 349 349 350 351 352 351 350 349 349 348 348 347 347 346 346 347 348 350 351 352 354 354 353 349 347 349 349 345 344 345 345 345 345 344 347 349 350 351 352 352 350 349 347 346 347 348 347 347 347 346 345 346 345 343 342 340 336 335 335 332
351 352 352 352 352 352 351 351 352 351 350 349 350 349 350 351 351 350 349 350 350 349 349 349 348 348 348 348 350 351 351 350 349 349 348 348 347 347 347 346 346 347 350 352 353 354 353 350 348 348 349 349 347 345 344 344 345 344 345 348 349 349 350 351 351 350 350 348 348 348 348 348 348 346 345 345 344 343 340 337 334 331 330 330 330
351 350 351 352 352 351 351 350 350 350 349 348 349 349 348 348 349 349 349 349 349 349 349 349 349 348 348 348 348 349 349 349 348 348 348 348 348 347 347 347 347 348 350 352 353 354 352 350 347 347 348 348 347 346 345 345 345 344 345 347 348 348 349 350 350 349 349 348 349 349 347 346 346 344 344 343 341 339 337 333 329 326 324 325 329
349 347 347 350 351 350 349 348 347 347 346 346 346 347 347 348 348 348 347 347 348 348 348 348 348 348 347 347 347 347 347 347 346 347 348 348 349 349 349 349 349 348 349 350 351 351 351 349 348 348 349 348 347 347 346 346 345 346 346 346 347 348 349 349 349 349 349 348 347 347 345 343 342 341 340 337 334 334 332 327 324 322 320 322 326
347 346 347 348 348 347 346 345 343 343 344 344 343 344 345 347 348 348 348 348 347 347 348 348 348 347 347 347 347 347 347 347 346 347 348 349 350 350 350 349 350 349 349 349 349 349 349 349 349 348 348 348 347 347 347 347 347 347 347 347 348 349 349 348 347 347 347 346 345 343 341 338 336 335 332 329 327 327 326 323 322 321 319 319 319
346 347 347 347 346 346 346 344 344 344 344 344 344 344 346 347 347 349 350 349 349 348 349 349 348 348 348 348 349 348 348 347 347 347 347 348 347 347 347 347 348 348 348 349 349 349 348 348 348 348 348 348 347 348 347 347 347 347 347 347 346 346 346 345 343 343 344 342 339 336 333 332 331 329 327 326 324 323 323 322 322 320 317 316 314
345 345 346 346 346 346 346 345 345 345 345 345 345 346 347 347 348 349 349 349 348 348 348 348 347 348 348 348 348 347 346 346 346 345 344 343 342 342 342 343 343 344 345 346 346 346 346 346 346 345 345 345 345 344 344 343 343 343 343 343 341 339 339 340 340 340 338 334 331 329 328 328 327 325 324 325 323 322 322 321 319 317 315 313 312
344 345 345 345 345 345 345 345 345 344 345 345 345 345 346 346 347 347 347 346 346 346 346 346 346 346 346 346 346 344 342 341 339 337 335 335 334 334 335 336 336 338 339 341 341 340 339 340 341 340 340 339 338 338 338 338 339 338 336 336 335 335 334 333 332 331 329 327 327 327 327 325 324 324 323 323 323 321 321 320 321 320 318 317 316
343 344 343 343 343 343 343 343 343 343 343 342 343 344 344 344 345 345 344 344 343 343 343 343 343 343 342 341 339 337 335 333 332 331 330 330 329 329 329 329 329 329 330 331 332 332 331 331 332 332 331 330 329 328 327 328 329 331 330 329 329 329 329 327 326 326 327 327 327 326 325 324 324 324 324 323 322 319 317 319 322 322 321 320 319
340 340 340 340 339 340 340 340 341 342 342 342 342 342 342 343 343 342 342 342 341 341 341 339 339 338 336 335 333 332 331 331 330 330 330 330 330 329 327 326 323 321 320 319 319 319 320 322 323 323 323 323 322 322 322 323 323 324 324 325 326 327 328 328 328 328 327 326 325 324 324 324 324 324 323 321 318 314 312 314 318 320 320 318 316
334 334 334 334 334 336 337 337 337 339 340 341 341 340 340 339 339 338 338 337 336 335 334 334 333 332 332 332 332 332 332 332 331 330 330 329 328 327 324 323 319 316 314 313 313 312 312 314 317 316 316 317 316 318 322 326 326 326 326 327 329 329 329 328 327 327 326 325 325 325 324 324 323 321 318 315 312 310 309 308 311 315 316 313 313
328 328 328 328 330 332 335 336 336 336 337 337 338 338 337 336 336 335 335 334 334 333 332 332 332 332 332 333 333 333 332 332 330 329 327 326 324 322 321 318 315 312 311 311 313 314 311 310 313 315 316 317 317 319 322 326 329 329 329 329 329 328 327 326 325 325 325 325 324 324 323 321 318 316 314 311 308 309 308 307 308 309 309 310 314
327 327 327 327 327 328 330 331 331 331 332 332 333 333 332 331 331 331 329 329 329 329 330 329 329 330 330 331 331 332 331 331 329 327 325 323 320 318 317 315 312 311 309 309 314 320 321 319 319 322 323 324 325 326 326 327 328 327 326 326 325 324 324 323 323 323 322 321 321 320 318 315 314 315 316 314 311 310 309 308 308 308 308 311 316
327 328 329 329 328 328 328 328 328 327 328 328 329 329 328 328 328 328 327 327 327 327 327 327 326 326 328 329 330 331 330 329 326 323 319 316 314 313 312 310 309 308 307 310 318 325 326 325 325 326 326 326 325 325 325 324 324 324 323 323 322 322 322 322 321 321 320 319 319 318 317 316 315 316 317 316 315 314 313 310 309 310 311 314 316
325 328 329 329 328 328 328 327 327 327 327 327 327 327 327 326 326 325 324 324 325 327 328 328 328 328 329 329 328 327 325 322 318 315 313 311 310 310 308 308 307 307 309 316 324 326 325 326 326 325 325 325 325 324 324 324 323 323 323 322 321 321 321 320 319 320 320 320 319 318 318 319 318 317 317 315 314 315 315 313 312 312 313 314 315
322 326 328 328 327 327 326 325 326 326 326 325 325 325 324 322 320 318 316 316 317 319 321 322 323 323 323 322 319 317 316 314 312 312 311 310 310 308 307 307 307 308 312 320 325 326 325 326 326 325 324 324 324 323 323 323 322 321 322 321 320 319 319 317 317 318 318 318 318 318 317 317 317 316 316 315 314 314 315 313 312 312 312 311 312
319 323 326 326 327 326 324 323 324 325 326 326 326 326 324 322 320 317 314 313 314 315 316 316 317 317 316 315 314 313 312 312 311 311 311 310 310 310 309 308 308 311 318 324 325 325 325 325 324 324 324 324 323 323 322 321 320 319 320 320 318 317 317 316 315 315 315 315 315 315 315 314 314 314 314 313 312 312 312 312 311 312 311 310 310
315 317 320 322 323 324 324 324 323 324 325 326 327 327 326 324 322 318 315 314 314 314 315 315 315 315 314 313 313 312 312 312 311 311 311 312 312 312 312 311 312 316 322 325 325 324 324 324 324 324 323 322 322 322 321 320 319 319 318 318 317 316 315 315 314 314 314 313 313 313 312 312 311 311 311 311 310 310 310 310 310 310 309 308 307
318 317 315 315 317 320 321 322 322 323 325 326 327 327 327 326 325 323 322 320 318 316 316 316 315 315 315 314 313 313 312 312 312 311 311 312 313 313 316 318 320 322 323 324 324 323 323 322 322 322 321 321 320 320 320 319 318 318 317 316 315 314 314 314 313 313 313 312 312 311 311 310 310 310 309 309 308 308 308 308 307 306 305 304 303
325 325 323 320 321 320 319 320 324 326 327 327 327 327 327 326 326 326 325 324 322 320 319 318 318 318 318 316 315 314 313 313 313 313 313 313 313 315 319 321 322 323 323 322 322 322 322 321 321 321 320 320 320 319 319 317 316 316 315 314 314 313 313 313 312 311 311 311 310 310 309 309 309 308 307 307 307 306 306 306 305 304 303 301 301
325 327 327 325 325 324 322 322 323 324 325 326 327 327 327 326 326 326 326 325 325 324 322 321 320 320 320 319 317 316 315 315 314 314 314 313 314 317 319 320 320 320 320 320 320 320 320 319 319 319 319 318 318 317 317 316 315 315 314 314 313 312 311 311 310 309 309 309 309 308 307 307 306 306 306 306 305 305 304 304 303 302 301 300 300
320 322 321 321 323 324 324 322 320 320 323 325 326 326 326 326 325 325 325 325 325 324 323 322 322 322 322 321 320 319 317 317 316 316 316 317 317 318 318 318 318 318 318 316 316 316 316 316 315 315 315 315 314 314 314 313 313 313 312 312 311 310 308 308 308 307 307 307 307 307 306 305 305 305 304 304 303 303 302 302 301 301 300 300 301
321 319 316 315 319 323 324 324 323 322 323 324 323 323 324 325 325 325 324 324 324 324 324 323 323 323 323 322 321 320 319 319 320 320 320 320 320 319 318 317 317 316 315 314 313 313 313 312 311 311 311 311 311 310 310 310 309 308 308 309 309 308 307 307 307 306 306 306 306 306 305 305 304 304 303 303 302 301 301 300 300 300 300 300 302
324 323 319 315 317 319 322 324 324 324 323 323 322 322 322 323 323 324 324 324 323 323 323 323 323 323 323 322 321 321 321 320 321 321 320 320 320 319 318 317 316 314 314 313 313 313 313 312 311 311 310 310 309 308 308 308 308 308 308 308 308 308 307 307 306 305 305 305 305 305 304 304 303 303 303 302 301 300 300 300 300 300 300 301 301
324 324 321 318 317 318 320 323 324 323 323 323 323 323 322 322 322 322 323 323 323 323 323 323 322 323 322 320 320 321 321 321 321 320 320 320 320 319 318 317 316 315 315 314 313 313 313 312 311 311 310 309 308 307 307 307 308 308 308 308 307 307 307 306 305 304 304 304 304 303 303 302 302 301 301 300 300 300 300 300 300 300 301 301 301
324 324 323 322 321 321 322 323 323 322 321 321 322 323 322 322 322 322 322 322 322 322 322 322 322 322 321 318 317 318 320 321 321 320 320 320 319 318 318 317 315 314 314 314 313 312 311 310 309 309 308 307 306 305 306 306 306 307 307 307 306 306 306 306 305 304 303 303 302 302 301 301 300 300 300 300 300 300 300 301 301 301 301 302 302
322 323 323 323 323 322 323 323 323 322 322 321 322 322 321 321 322 322 321 321 321 321 321 321 321 321 319 317 316 317 318 319 321 321 320 320 319 318 317 317 315 314 313 312 312 310 309 309 309 308 306 306 305 305 305 305 305 305 306 306 305 305 305 304 304 303 303 302 301 301 300 300 299 300 300 300 300 300 300 300 301 301 301 301 301
321 322 322 322 323 323 323 323 323 322 322 322 322 321 320 320 321 321 321 320 321 320 320 320 320 320 320 318 317 316 316 318 320 320 319 319 319 317 317 316 314 313 312 312 311 310 309 308 308 307 306 305 305 304 304 304 304 304 305 305 304 304 304 303 303 302 301 301 300 300 300 299 299 299 299 299 299 300 300 300 300 300 300 300 301
320 321 321 321 321 322 322 322 322 322 322 322 322 321 321 321 320 320 320 320 320 320 320 319 319 319 320 320 319 318 318 319 320 319 319 319 318 316 315 314 313 312 312 311 311 310 308 307 307 306 306 305 304 304 304 304 304 304 304 304 303 303 303 302 302 301 300 299 299 299 299 299 299 298 298 298 299 299 299 299 299 299 300 300 300
318 318 318 318 319 319 319 319 320 320 320 320 320 320 320 320 320 320 320 320 319 319 319 319 318 319 319 320 320 320 320 320 319 318 318 318 317 315 314 313 312 312 311 311 310 309 307 306 306 306 305 305 305 304 304 304 304 303 303 302 302 302 301 301 300 299 299 298 298 298 298 298 298 298 298 298 298 298 299 299 299 299 299 299 299
316 316 316 316 316 316 316 317 317 317 317 317 317 317 317 318 318 318 319 318 317 317 317 318 318 318 318 319 319 320 319 319 319 318 317 316 315 314 313 313 312 311 310 309 308 307 306 306 305 305 305 305 304 304 304 304 303 303 302 301 301 301 300 300 299 298 298 298 297 297 297 297 297 297 297 297 298 298 298 298 298 299 299 299 299
316 316 316 316 315 315 315 315 315 315 315 315 316 316 316 316 316 317 317 317 317 316 316 317 317 317 317 318 318 318 318 318 317 316 316 315 314 313 312 311 310 310 309 308 307 306 306 306 306 305 304 304 304 304 304 303 302 302 301 301 300 300 300 299 298 298 297 297 296 296 296 296 296 297 297 297 297 297 297 298 298 298 298 298 298
315 315 315 315 315 314 315 315 315 314 314 315 315 315 315 315 315 316 316 316 316 316 316 316 316 316 317 317 317 317 316 316 316 315 315 314 313 312 311 311 310 309 309 308 308 307 306 306 306 305 304 304 304 303 303 302 302 301 301 300 300 299 298 297 296 296 296 296 296 296 296 296 296 296 296 296 296 297 297 297 297 297 297 298 298
314 314 314 314 314 314 314 315 314 314 314 314 314 314 314 314 314 315 315 315 315 316 316 316 316 316 316 316 316 316 316 316 315 314 313 312 311 311 310 309 308 307 308 308 307 307 306 306 305 304 304 303 303 303 302 302 301 301 300 300 299 298 297 296 295 295 295 295 296 296 296 296 296 296 296 296 296 296 296 296 297 297 297 297 297
313 313 313 313 313 313 314 314 314 314 313 314 314 314 314 314 314 314 314 314 314 315 315 315 315 315 315 315 316 315 315 314 314 313 312 311 311 311 310 308 307 306 306 307 306 306 305 305 305 304 304 303 302 302 301 301 300 300 300 299 298 297 296 295 295 295 295 295 295 296 296 296 296 296 296 296 296 296 296 296 296 296 296 297 297
Wind_Speed
19 19 18 18 18 18 18 17 17 16 15 15 14 13 12 12 11 11 10 10 11 10 11 11 11 11 10 10 10 10 11 11 10 11 12 12 11 11 11 12 12 11 10 10 10 9 10 11 10 9 10 10 9 10 10 10 9 9 8 8 8 7 7 8 9 10 9 8 8 9 8 9 9 9 10 11 11 14 14 12 13 13 12 12 15
19 19 18 18 18 17 17 17 17 16 15 15 14 14 13 13 12 12 11 11 11 11 11 11 12 12 11 11 11 11 12 12 11 11 11 12 12 11 10 12 12 12 12 12 11 11 11 12 11 10 10 10 10 10 10 9 9 9 8 8 8 7 7 8 9 9 9 9 9 9 9 10 10 10 11 11 12 14 13 13 13 12 12 13 14
19 19 19 19 18 17 16 16 16 16 16 15 14 14 13 13 13 13 12 11 11 12 12 11 12 13 13 13 13 13 13 13 12 11 12 13 13 12 11 11 12 12 12 12 12 11 11 12 11 10 9 9 10 10 9 9 9 9 9 9 9 8 8 9 10 10 10 10 10 10 10 10 11 11 11 11 13 14 14 15 16 13 13 14 13
18 19 20 19 18 17 17 16 16 16 16 15 15 14 14 13 13 13 13 12 11 12 12 12 13 14 14 14 14 14 13 13 12 12 12 13 13 13 13 13 13 13 13 13 12 12 12 12 11 11 10 10 10 10 9 9 9 9 9 9 9 9 9 9 10 10 11 11 11 11 11 12 12 12 12 12 13 13 14 15 16 14 13 14 13
19 19 19 18 18 18 17 16 17 16 16 16 15 15 15 14 13 13 13 13 12 11 12 12 13 14 14 13 13 13 13 13 13 13 12 12 12 13 13 14 14 14 14 14 14 13 14 13 12 12 11 11 10 9 9 9 9 9 9 9 9 9 9 9 10 10 11 12 13 13 13 13 12 12 12 13 13 14 14 13 13 13 15 16 15
19 19 18 17 18 18 18 17 17 17 17 16 15 15 15 15 14 14 13 13 13 12 12 11 12 13 13 13 12 13 13 13 14 14 13 13 13 13 13 14 14 14 14 14 14 14 14 14 13 12 12 12 11 10 10 10 10 10 10 10 10 9 9 10 11 11 11 12 13 13 13 12 12 12 11 13 15 14 13 13 13 13 16 19 18
18 18 17 17 17 17 18 18 18 17 17 16 16 15 15 15 15 14 13 13 13 12 12 12 11 12 12 12 12 12 13 14 15 15 15 14 13 14 14 14 14 14 14 13 13 14 13 13 13 13 12 12 11 11 10 10 10 10 10 10 10 9 11 12 12 11 11 12 12 12 13 12 12 12 11 12 14 12 11 14 15 14 17 20 18
19 18 17 18 17 16 17 18 18 18 17 17 16 15 14 15 15 14 14 13 13 13 12 12 12 11 11 12 12 12 13 14 15 15 15 14 14 14 14 14 14 14 14 13 13 13 14 14 14 13 13 13 12 11 11 10 10 10 11 12 12 12 14 15 15 14 13 12 12 12 13 12 11 11 10 10 11 11 11 14 15 15 17 18 15
20 20 19 19 18 16 16 17 18 18 18 18 17 16 15 14 14 14 14 13 13 12 12 12 12 12 12 12 12 12 13 13 14 14 14 13 13 13 14 14 14 14 14 14 14 14 14 15 16 15 15 16 16 14 14 14 13 12 12 14 14 14 15 16 16 15 13 12 12 12 12 11 10 11 11 11 12 12 13 15 16 16 16 15 14
21 20 20 19 18 17 17 17 18 18 17 17 16 16 15 14 14 14 14 13 13 12 12 12 12 12 12 12 13 13 13 14 15 16 15 13 13 13 13 13 14 15 17 18 18 18 17 17 17 16 15 17 17 17 17 17 16 16 14 14 14 15 15 15 14 12 12 12 11 11 12 12 12 12 13 13 12 11 12 16 17 17 16 15 14
22 21 20 19 18 18 18 17 18 18 17 16 16 16 16 16 16 16 14 14 14 14 14 13 13 13 12 13 13 12 14 16 17 17 14 13 14 14 13 13 14 16 18 19 20 19 17 15 15 14 14 15 16 16 17 17 17 17 16 15 16 14 14 14 13 11 11 11 12 12 13 14 14 13 13 13 12 12 14 17 17 17 16 15 13
21 21 20 19 18 18 18 18 18 18 18 17 16 15 16 16 17 18 16 14 14 15 14 14 14 14 13 13 13 14 17 18 16 16 15 14 14 15 16 17 16 15 15 17 18 18 17 16 15 14 15 16 15 16 18 18 17 17 17 16 16 14 14 15 14 13 12 12 13 14 14 14 14 13 13 14 15 17 18 18 17 15 14 12 12
21 20 20 18 17 17 17 17 17 17 17 17 17 16 16 16 16 17 16 15 14 14 14 13 14 14 14 14 14 15 18 19 17 16 16 15 15 15 17 19 18 16 16 17 19 19 19 20 19 18 18 18 17 17 17 18 17 17 17 18 18 17 17 16 16 16 14 14 15 15 15 17 17 16 17 18 19 19 18 18 16 13 12 12 12
20 20 19 17 15 15 15 15 16 16 16 15 16 17 17 16 16 16 16 16 16 16 14 12 13 13 14 14 14 15 17 19 19 17 16 16 16 17 19 19 17 18 19 19 20 20 21 21 21 19 18 18 18 18 17 17 17 18 18 18 19 19 19 18 19 19 18 19 18 16 18 21 21 19 20 20 19 18 17 18 17 13 12 12 11
18 18 17 16 15 15 14 14 14 14 14 13 14 16 17 17 16 16 16 16 17 17 17 15 13 13 13 14 14 15 17 19 18 17 16 15 15 17 19 19 18 19 20 20 20 21 21 20 20 19 19 18 17 18 18 17 18 19 19 19 20 20 20 19 20 20 21 22 20 16 17 21 22 20 20 21 19 17 16 16 15 13 12 11 9
14 14 14 14 14 14 14 13 13 13 12 12 12 14 16 16 16 16 16 17 17 18 19 18 16 15 15 16 15 16 19 19 17 17 17 16 16 17 18 19 19 20 21 20 19 19 18 17 19 19 19 19 18 18 19 19 19 20 21 20 20 19 20 22 23 23 24 24 23 21 22 24 24 22 21 21 18 15 12 10 9 10 10 10 9
13 13 14 14 14 14 13 12 12 13 13 12 11 11 11 12 14 15 16 16 17 18 19 19 18 17 18 19 16 15 19 20 17 17 17 17 18 19 18 19 19 18 20 18 17 18 19 20 21 21 19 19 20 20 20 20 21 22 22 22 20 18 20 24 24 23 24 25 26 26 26 26 25 24 22 20 17 13 7 3 4 7 8 7 8
13 13 13 13 13 13 12 11 12 12 12 12 12 11 11 11 13 14 15 16 17 17 17 18 19 18 19 19 17 15 19 21 19 19 19 19 20 20 21 22 21 20 19 17 17 20 23 23 24 24 23 23 24 24 23 23 23 24 23 22 21 18 19 23 24 23 24 26 26 26 26 24 22 21 18 16 14 10 4 2 3 5 6 6 7
12 12 10 11 12 12 12 12 12 12 12 12 11 10 11 12 13 13 14 16 17 17 16 17 17 18 19 19 18 18 21 22 22 22 23 22 22 21 21 22 22 21 19 16 17 21 23 24 26 27 27 27 25 25 26 25 25 25 24 23 23 21 20 24 27 27 26 26 24 23 23 20 16 12 10 9 9 6 4 5 6 6 7 7 8
11 10 10 11 13 12 12 13 12 13 16 17 15 12 12 12 12 13 15 16 16 16 15 14 15 17 18 19 18 19 20 21 22 23 23 22 22 22 21 22 22 22 20 18 20 23 24 24 26 26 26 26 26 26 27 26 25 25 25 26 26 25 24 27 28 28 26 24 23 20 17 13 8 5 3 4 5 5 6 7 7 8 10 8 7
11 11 13 14 15 13 12 13 14 16 19 20 19 18 16 14 11 11 11 13 14 14 13 13 15 16 16 16 17 17 18 20 21 21 21 21 22 22 23 23 24 24 22 20 22 26 27 26 26 26 26 26 26 26 27 27 27 26 27 28 28 27 28 27 24 23 23 21 16 11 8 5 1 2 3 4 6 8 9 10 10 12 13 12 10
9 11 12 13 12 10 9 10 12 15 16 15 15 16 17 15 12 9 8 9 10 9 10 12 13 13 14 14 15 15 16 16 18 19 20 21 22 22 23 23 23 24 23 21 20 21 22 22 22 22 24 26 26 27 28 28 28 27 27 27 25 23 23 20 14 13 15 11 6 4 3 1 3 5 5 5 8 10 13 14 15 16 16 15 13
7 9 10 9 8 7 7 7 9 10 10 10 9 10 11 10 9 8 9 9 8 8 8 9 10 10 12 12 12 12 12 11 13 14 15 16 16 15 15 16 17 19 19 19 19 18 17 18 19 20 21 22 23 24 24 24 23 22 21 19 15 11 9 6 3 4 5 4 4 4 2 2 3 2 3 6 10 13 15 18 18 16 16 15 13
8 9 9 9 8 8 8 7 7 6 5 5 5 6 7 8 10 9 9 8 7 7 7 7 7 8 9 9 8 8 7 6 6 6 6 6 6 6 6 7 8 9 11 13 14 13 11 11 12 13 13 14 14 14 14 14 13 11 9 6 4 1 3 5 7 7 6 3 2 2 2 2 1 4 6 9 13 15 16 16 14 13 14 13 11
13 12 12 12 11 9 9 8 8 8 6 6 6 6 8 9 9 8 6 6 6 6 7 7 7 7 6 5 4 3 2 2 3 4 4 4 4 5 5 6 6 5 5 6 7 6 4 4 4 5 5 5 5 6 5 4 3 3 4 4 4 6 6 5 5 5 3 2 2 1 1 3 5 8 10 12 14 14 12 10 7 7 9 9 8
15 16 16 16 15 13 11 11 11 11 11 12 12 10 10 9 8 7 7 7 8 7 6 6 7 7 8 8 8 8 8 8 8 7 6 6 6 6 6 6 7 7 7 6 6 5 4 4 3 4 4 5 7 9 9 9 10 10 9 7 6 6 5 4 4 4 3 2 1 2 4 7 9 11 13 14 14 14 11 8 5 5 6 8 8
16 17 17 17 17 16 15 15 15 14 14 15 15 14 12 11 10 11 12 12 11 11 10 11 11 11 11 11 10 10 9 7 6 5 4 3 3 3 4 5 5 6 6 5 5 4 4 4 4 5 6 7 8 10 10 9 9 9 8 6 5 5 6 5 4 2 1 1 3 5 7 10 12 13 13 13 12 12 12 10 7 6 7 9 9
14 13 12 12 12 13 14 15 15 15 15 16 15 14 15 15 15 15 15 15 14 14 14 13 13 12 10 9 7 5 4 2 2 2 2 2 3 4 4 6 6 5 4 3 2 1 2 4 5 6 8 8 9 9 9 8 8 8 7 6 5 4 3 2 1 1 3 5 7 8 10 11 11 11 10 10 10 10 10 10 9 8 8 9 8
15 15 14 13 13 13 13 12 12 12 14 14 14 13 13 14 14 14 13 12 11 11 10 9 8 6 5 4 3 2 1 1 3 5 6 6 6 6 5 6 5 3 1 1 3 4 4 5 6 7 8 9 9 10 9 9 9 8 7 6 5 3 2 3 3 4 6 7 8 9 9 8 7 7 7 9 10 10 10 9 9 10 9 8 7
17 17 17 16 16 16 15 14 14 15 15 14 14 14 14 14 13 12 11 10 8 7 6 5 4 3 3 2 2 2 2 3 5 7 8 7 6 4 3 3 2 2 3 6 8 7 5 5 6 8 9 9 9 9 9 8 8 7 6 6 5 4 4 4 5 6 6 6 5 6 6 6 5 4 4 6 8 9 10 11 11 11 10 9 8
15 16 15 15 15 16 16 15 14 15 14 14 13 13 13 12 12 11 9 8 7 6 5 5 4 3 2 2 3 4 4 5 5 5 5 5 5 4 3 3 4 6 8 9 9 7 6 7 8 8 8 8 9 8 7 6 6 6 5 4 4 4 3 2 3 5 5 5 4 4 4 4 4 4 4 6 7 6 8 11 11 11 10 10 10
13 14 14 13 13 13 13 12 12 12 12 12 12 11 11 10 10 9 8 7 7 6 5 4 3 3 2 2 2 2 2 3 3 4 5 5 5 5 5 6 8 10 11 11 9 8 7 8 8 7 7 7 8 7 6 5 5 5 3 1 0 1 2 4 3 1 1 2 3 4 4 3 4 5 5 7 8 7 8 10 11 11 12 12 11
11 11 11 11 10 10 9 10 10 10 10 10 10 10 9 8 8 8 8 7 7 6 6 5 4 3 3 2 2 2 3 3 4 4 4 5 6 6 7 7 9 11 12 10 9 9 8 7 7 6 5 5 5 4 3 3 3 2 2 2 4 5 6 7 7 6 6 5 4 5 6 7 8 7 7 8 10 10 11 12 12 12 13 13 12
8 8 8 8 8 8 8 8 9 9 9 9 9 8 7 8 8 8 8 8 8 7 7 7 6 6 5 4 4 4 4 4 4 4 4 6 6 7 8 9 10 11 11 9 8 8 8 6 6 5 4 4 3 2 1 1 2 2 4 6 7 8 9 9 10 10 10 10 10 10 11 12 12 12 12 13 15 15 14 13 13 12 13 14 14
6 6 6 6 6 6 7 7 8 8 7 7 7 7 7 7 7 6 7 7 7 8 8 8 7 7 6 5 5 5 5 5 4 4 5 6 7 7 9 9 10 10 9 8 8 7 6 6 5 4 3 2 1 1 2 4 5 6 7 8 9 10 11 11 12 12 11 11 12 14 14 14 15 16 16 17 18 17 15 15 15 15 16 16 16
5 5 4 4 4 4 5 5 5 4 4 4 5 5 5 5 5 5 5 6 6 6 7 7 7 7 6 6 5 5 5 5 5 5 5 5 6 7 8 7 7 8 8 7 7 6 6 5 4 3 2 1 0 1 2 6 7 7 8 9 10 11 11 11 12 14 13 13 13 14 14 13 13 14 14 15 16 16 15 15 17 18 18 16 16
4 4 3 4 4 4 3 3 3 3 4 4 3 3 3 3 4 4 4 4 5 5 4 4 5 5 5 5 5 5 5 5 5 4 4 4 5 6 6 5 5 6 6 6 6 5 4 4 3 2 2 1 1 2 3 5 5 4 6 7 8 10 12 13 13 14 14 13 12 11 11 12 12 13 13 13 14 14 15 16 17 17 16 14 13
1 1 2 3 4 4 3 3 3 3 3 3 2 3 3 3 4 4 4 4 5 5 4 3 3 3 2 3 3 4 4 4 3 3 2 3 4 5 5 5 5 5 4 4 4 4 3 3 3 2 2 3 4 4 5 5 5 5 6 7 8 11 13 14 14 13 13 12 11 10 10 11 12 13 15 14 14 14 16 17 16 14 13 12 10
4 4 3 1 2 3 3 2 2 2 2 2 2 3 3 4 4 4 5 5 4 5 5 4 4 4 5 5 4 3 2 2 2 2 1 1 2 3 3 4 4 4 3 3 3 2 2 2 4 4 5 5 6 7 8 8 9 10 10 9 10 11 12 11 11 12 11 10 8 8 8 8 9 10 12 13 13 14 14 14 13 11 11 9 8
3 4 5 3 0 2 3 2 2 2 1 1 2 2 2 3 3 4 5 5 5 5 6 6 6 7 8 7 6 4 4 3 4 5 4 2 1 1 2 2 2 2 2 2 2 2 1 2 3 4 5 6 7 8 8 7 8 9 9 8 8 9 9 9 10 9 8 7 6 6 7 8 9 9 10 11 12 12 12 11 10 10 9 9 9
2 4 7 6 4 2 1 2 3 4 4 3 2 1 1 2 3 3 4 5 5 6 6 6 7 8 9 8 7 7 7 7 7 7 6 5 4 2 1 2 2 2 2 2 2 2 2 2 3 3 4 6 6 6 6 6 5 6 6 7 6 6 7 9 10 9 8 6 5 6 6 7 8 9 9 10 11 11 11 10 9 9 9 9 9
4 4 5 5 4 3 2 3 4 5 5 4 3 3 3 3 3 3 4 4 5 6 6 6 6 7 7 7 8 8 8 8 8 8 8 8 7 5 3 3 3 4 3 3 3 4 4 3 4 4 5 6 6 6 5 5 5 5 5 6 7 7 6 6 8 9 8 5 4 5 6 7 8 9 10 11 10 9 9 10 9 9 9 9 9
5 5 6 6 5 5 5 6 6 5 5 5 5 6 6 5 5 5 5 5 5 6 6 6 6 7 7 8 8 9 9 9 9 9 9 8 7 6 4 4 4 4 4 4 4 5 4 3 3 5 6 7 7 6 6 7 8 7 5 6 7 7 6 6 7 7 6 5 5 6 6 7 8 8 9 10 10 9 9 9 9 9 9 8 9
4 5 6 6 7 7 7 7 7 7 7 8 8 8 8 8 8 8 8 8 8 8 8 9 8 8 9 9 8 9 10 10 10 10 10 10 9 7 6 6 6 6 6 6 7 7 5 4 5 7 7 8 9 9 9 9 8 6 5 6 7 6 6 7 7 6 5 5 5 6 6 7 7 8 8 9 8 8 8 8 8 8 8 8 8
4 4 5 6 6 6 6 6 6 6 6 7 8 9 10 10 11 11 12 12 12 11 11 12 11 10 9 9 9 9 9 10 10 11 12 11 10 8 8 7 8 8 7 7 9 8 6 6 7 7 7 8 9 9 8 7 7 5 4 6 6 6 6 6 6 5 4 4 5 5 6 6 6 6 7 7 7 7 7 8 8 7 8 8 8
4 4 5 5 5 6 6 6 6 6 6 7 8 9 10 10 10 11 12 13 13 12 12 13 13 11 10 10 10 9 9 9 10 12 13 12 10 9 9 9 9 8 7 8 8 7 6 5 5 4 5 6 6 5 5 5 5 6 6 6 6 5 4 4 4 4 4 5 5 5 5 5 6 6 6 7 7 7 7 7 8 8 8 8 8
4 5 5 5 5 6 7 7 7 7 7 8 8 9 10 10 10 10 11 12 13 14 13 12 12 12 12 11 11 10 10 10 10 11 12 12 12 11 11 11 9 7 6 6 6 5 5 4 4 5 6 5 4 4 5 5 5 6 6 6 5 5 4 3 3 3 4 4 4 5 5 5 5 6 6 7 7 7 7 7 8 8 8 8 8
6 6 6 6 7 7 8 8 8 9 9 9 9 10 10 10 9 9 9 10 12 12 12 12 11 12 12 12 12 11 11 11 11 11 11 13 14 13 11 9 7 5 5 5 4 4 3 3 4 6 7 5 4 5 6 6 6 6 5 6 8 10 10 8 4 4 4 4 4 4 5 5 5 5 6 7 7 7 7 7 7 7 8 8 8
7 8 8 8 8 9 9 9 10 10 10 10 10 10 10 10 9 9 9 9 9 10 10 10 10 10 10 11 11 11 11 11 12 12 12 13 14 12 9 8 6 6 5 5 5 4 4 3 4 5 5 5 5 6 6 7 7 6 6 9 12 14 14 12 9 6 6 5 5 5 5 5 5 5 6 7 7 7 7 7 7 7 8 8 8
8 8 9 9 10 10 10 10 10 10 10 10 10 10 10 10 9 9 9 9 9 9 8 8 7 7 7 8 9 9 9 10 11 12 11 11 11 9 8 7 7 6 6 5 5 5 4 4 5 5 5 6 7 7 6 7 7 7 9 13 14 15 16 14 11 7 5 4 4 4 5 5 5 6 6 6 7 8 8 8 8 8 8 8 8
7 7 7 8 8 8 8 8 8 8 8 8 8 9 9 9 9 9 9 8 8 8 8 6 5 5 5 5 7 8 8 9 9 9 8 8 7 6 6 7 7 6 5 5 5 5 5 5 6 6 6 7 8 7 7 8 10 12 14 15 16 15 14 11 7 5 5 4 4 4 5 5 5 6 6 6 7 8 8 8 9 8 8 8 8
Wind_Direction
204 207 207 207 210 212 214 216 216 216 218 221 222 222 224 223 221 223 223 222 222 224 229 230 231 232 232 235 235 235 240 241 238 242 248 249 247 243 243 251 258 262 261 258 255 257 263 266 267 269 273 275 273 273 273 273 273 273 275 276 275 277 274 278 288 293 299 304 304 313 318 317 324 325 326 333 328 329 335 334 333 334 334 334 329
206 208 207 208 211 211 212 213 216 216 216 220 223 222 223 223 222 221 222 225 226 224 228 232 235 235 232 236 239 238 242 245 242 241 245 247 249 250 254 260 263 262 263 264 263 260 263 268 272 273 275 276 273 272 273 274 274 273 275 278 281 282 276 277 286 290 297 303 305 310 314 314 320 321 323 330 329 331 334 330 328 326 324 332 331
206 211 211 210 211 210 210 212 215 217 215 217 220 220 221 222 224 223 221 225 229 228 228 228 234 237 234 235 240 241 243 246 243 242 243 245 247 247 248 254 260 262 264 267 268 265 264 266 269 269 268 268 268 271 272 271 273 275 275 276 280 282 280 279 283 287 293 297 300 305 308 309 312 315 319 324 325 325 326 326 329 329 325 330 334
204 212 216 213 211 210 210 211 213 215 215 217 218 219 219 220 223 224 223 225 228 231 232 228 232 240 239 240 244 245 245 246 244 244 246 249 251 252 252 253 256 259 260 261 261 258 258 261 263 262 261 262 266 270 271 269 270 272 274 276 278 280 280 278 280 284 287 289 294 299 302 303 305 309 313 316 321 323 320 324 331 332 330 333 336
205 211 217 215 212 211 210 210 213 214 214 217 219 219 219 220 223 224 224 225 225 229 234 233 234 240 241 241 244 246 246 245 246 244 244 249 252 254 256 257 258 258 259 260 259 256 256 257 257 259 259 260 265 269 269 267 268 270 271 272 275 278 280 280 279 279 280 285 291 293 296 299 299 301 306 310 317 321 318 322 327 325 328 335 338
209 212 214 213 214 213 211 211 213 215 215 216 218 219 219 220 222 224 223 225 225 226 231 234 236 239 240 238 239 244 245 244 246 247 245 246 250 252 254 256 258 259 259 260 261 260 259 258 258 258 256 256 259 263 264 265 265 268 270 271 273 276 280 283 282 280 280 284 288 291 295 297 297 300 303 305 313 319 319 322 326 323 325 332 336
213 214 211 212 215 216 215 213 213 215 217 217 217 218 220 220 221 223 223 223 225 226 228 231 233 238 242 240 237 240 245 244 246 248 247 244 246 249 252 254 255 256 257 257 257 257 257 258 259 257 256 256 257 258 262 267 268 268 268 267 266 272 279 286 288 286 287 289 290 294 299 298 299 302 302 303 312 319 317 319 324 324 324 329 333
214 215 213 214 217 217 218 218 216 215 216 217 217 217 219 220 219 221 222 222 223 225 227 230 234 237 240 241 238 240 244 246 247 249 248 245 245 248 252 253 253 253 254 255 257 260 261 260 258 257 256 251 250 252 253 255 260 265 265 263 263 271 281 288 290 289 289 291 293 297 300 300 301 304 306 307 310 311 310 314 319 322 324 327 329
217 218 218 219 220 220 219 221 222 221 220 222 220 216 217 221 221 221 222 224 225 227 228 228 232 235 236 238 239 238 241 245 246 247 247 246 246 249 253 254 254 253 252 253 254 255 257 259 258 257 255 253 253 258 257 254 254 259 266 270 272 280 287 289 290 290 290 290 294 299 300 300 304 307 309 310 308 307 309 314 318 319 320 324 322
219 220 221 222 224 224 223 223 224 224 224 226 226 221 217 217 221 223 224 227 227 228 230 229 231 235 237 240 242 242 243 243 243 244 245 246 248 249 251 253 253 249 248 251 254 254 256 260 262 263 266 266 267 266 265 262 259 258 262 269 273 281 287 287 286 289 291 292 296 302 301 301 304 305 306 309 309 306 307 312 316 316 317 322 321
223 222 224 226 227 228 227 225 224 223 222 224 225 225 222 218 219 221 223 228 230 232 234 235 236 237 239 242 244 246 245 242 246 253 254 251 249 249 251 253 254 255 257 259 263 264 265 266 268 270 270 271 274 274 271 267 264 262 263 265 269 276 283 286 285 284 287 291 296 300 300 300 302 302 303 304 301 301 306 310 312 313 317 321 319
231 228 228 230 231 230 229 228 226 222 220 220 221 224 225 224 225 226 226 228 233 237 239 240 241 241 242 244 245 247 247 246 252 263 265 258 250 247 248 248 250 256 264 268 270 272 272 271 268 263 257 258 267 274 274 272 268 266 264 264 267 270 275 281 283 282 283 289 295 299 299 300 302 301 298 297 296 301 307 308 308 312 316 317 315
239 236 234 234 232 229 227 227 229 227 223 222 222 222 223 224 227 231 232 230 232 236 238 240 244 244 243 245 246 249 251 252 254 261 265 265 259 253 252 254 255 255 257 264 270 272 274 274 270 265 261 260 265 271 275 277 274 269 267 267 268 268 270 273 276 278 281 285 289 292 294 296 300 299 297 297 299 302 305 305 306 310 308 306 308
241 241 240 236 232 229 226 223 227 231 229 225 223 223 223 223 224 227 230 233 234 236 237 239 243 245 246 248 251 255 255 254 254 258 262 266 268 267 266 268 269 267 264 266 268 269 271 273 272 272 271 270 271 276 279 280 279 276 274 273 273 273 273 271 271 275 278 282 286 289 290 294 298 299 297 297 297 297 298 300 301 301 301 304 311
238 240 239 233 231 232 226 219 221 228 231 229 227 226 226 226 227 227 228 232 235 237 237 236 240 244 248 249 252 254 255 256 259 259 257 263 270 272 272 272 272 272 271 270 271 273 273 272 272 275 277 276 276 280 280 279 280 281 279 275 273 275 274 267 267 275 281 284 285 283 283 288 294 296 294 295 296 295 296 299 301 309 317 319 326
227 229 228 227 230 233 230 221 218 220 223 224 227 231 231 229 230 230 231 231 232 234 235 235 238 244 248 250 251 254 257 262 265 261 257 262 268 268 271 274 275 275 275 273 275 277 272 268 274 278 278 276 275 275 276 277 277 277 276 272 269 272 274 266 263 272 280 281 281 280 280 284 288 288 287 289 292 291 293 302 309 318 324 321 323
213 217 220 223 227 230 231 229 225 224 224 224 226 229 230 231 232 232 234 234 234 236 238 237 237 240 244 247 250 256 261 262 263 262 261 265 268 269 271 274 275 278 277 273 271 267 260 261 271 274 270 270 272 273 273 274 274 274 276 275 269 266 270 269 266 267 274 279 282 282 282 283 284 284 283 286 286 283 281 292 311 318 322 321 321
210 212 214 217 218 219 223 227 230 230 228 225 224 223 221 226 232 233 234 237 239 241 244 246 246 246 245 245 246 255 262 263 263 263 263 264 266 269 271 273 275 277 278 277 273 266 261 262 267 268 267 269 272 273 272 272 273 275 276 277 274 268 268 272 274 275 279 283 283 281 280 281 281 283 286 286 282 279 280 289 310 324 326 323 318
207 207 210 217 217 214 216 222 227 230 229 223 221 228 233 235 240 242 241 243 245 245 246 249 250 252 253 251 250 256 265 268 269 268 267 266 266 268 270 273 274 274 275 276 269 263 263 266 268 268 270 272 272 272 272 272 273 274 274 275 277 277 273 271 273 278 280 279 275 275 276 275 273 276 282 281 279 285 305 311 315 320 320 324 324
209 211 216 222 220 216 217 224 230 238 240 233 227 239 256 254 249 249 247 243 244 247 249 249 248 250 255 257 257 260 267 271 271 271 270 269 269 271 271 270 272 272 272 269 265 263 265 271 273 272 272 273 273 272 272 273 274 275 276 276 277 276 272 270 269 269 269 267 267 267 265 258 248 247 265 295 309 312 309 308 313 313 316 324 323
216 216 215 216 219 225 233 239 242 247 249 243 235 241 255 256 246 242 240 237 239 245 250 252 252 254 257 260 262 265 268 270 271 272 272 273 274 275 273 272 272 273 271 268 268 269 269 270 274 275 275 274 274 273 274 276 279 281 281 280 279 276 273 275 276 268 261 263 265 258 246 241 264 14 3 350 332 320 314 313 316 316 317 316 309
214 213 213 215 222 235 245 243 239 239 243 242 233 231 239 243 237 230 222 222 235 248 253 256 259 262 262 262 265 268 269 272 276 279 281 283 282 280 277 275 273 273 271 266 261 262 264 266 270 273 275 277 279 280 282 284 285 286 283 279 278 275 270 272 276 266 256 252 230 191 201 338 37 37 19 351 332 329 326 322 321 321 319 315 308
190 193 196 198 200 207 212 214 219 224 229 230 220 216 224 224 214 206 202 206 226 249 256 257 259 258 255 254 258 263 268 274 278 282 285 286 286 284 282 281 280 278 271 259 250 252 258 262 267 274 279 284 287 289 291 292 291 289 285 278 276 276 268 253 214 193 200 185 158 157 143 91 80 38 355 339 329 328 327 323 324 326 327 324 317
136 144 146 148 154 160 168 175 182 190 198 198 192 193 195 191 188 194 201 207 219 230 233 234 235 238 240 241 244 254 262 267 272 276 278 285 298 306 304 301 298 290 275 260 255 258 263 266 273 283 290 296 302 306 307 304 298 292 288 279 261 191 137 131 131 138 146 144 130 124 114 106 20 320 326 328 324 326 331 333 334 336 337 336 332
123 122 119 119 123 128 133 141 145 146 146 144 146 157 170 178 184 188 186 183 186 197 207 209 207 209 207 200 198 192 161 124 97 87 85 75 54 38 23 14 5 348 328 306 294 296 310 316 314 322 332 343 3 17 21 24 54 94 99 96 104 110 109 108 111 112 102 85 87 78 336 321 319 320 321 322 322 325 333 339 342 345 343 337 332
115 114 111 108 107 108 111 115 121 134 148 149 146 149 160 169 173 164 154 152 150 151 155 152 148 148 142 133 125 117 107 99 94 89 82 74 67 54 38 26 17 11 7 1 358 5 20 31 36 48 63 77 85 83 80 82 94 103 105 100 96 100 100 97 98 99 94 87 57 327 322 324 323 321 320 321 321 321 321 321 327 336 328 321 324
102 104 106 105 102 99 98 99 104 115 129 133 133 135 139 142 143 135 127 126 125 125 127 125 122 122 121 115 109 103 95 89 87 87 78 62 43 26 20 9 358 1 5 4 7 20 39 50 54 70 86 96 101 100 95 93 98 104 105 102 101 104 107 106 106 110 145 272 303 315 320 320 319 320 322 323 322 322 323 325 327 325 321 324 332
94 95 100 105 107 103 99 100 104 110 114 117 120 124 124 122 122 121 118 119 120 121 120 118 116 116 115 111 105 99 94 82 51 22 7 342 322 320 334 338 340 353 0 359 18 45 68 77 78 83 87 89 94 100 103 105 104 103 103 103 104 105 102 91 54 323 306 308 311 314 317 319 322 328 331 328 326 326 326 329 331 328 331 339 342
98 97 98 104 109 109 106 105 106 105 108 112 117 118 115 112 113 114 114 117 120 123 123 121 120 121 122 119 117 110 125 264 301 312 317 317 310 300 298 310 327 346 358 135 122 107 90 87 89 89 88 85 87 90 92 94 97 101 104 101 93 78 44 6 345 328 324 327 326 323 325 331 338 347 345 335 333 331 327 328 331 330 335 343 337
105 106 108 110 111 110 109 109 108 104 103 104 108 109 107 105 105 107 110 112 115 121 127 137 153 169 178 192 218 251 291 302 307 314 320 324 327 327 309 307 343 53 121 121 111 109 112 110 106 105 102 96 93 91 89 90 91 90 92 90 77 64 54 35 17 2 356 360 1 353 354 359 0 4 351 332 334 335 328 328 333 335 338 338 327
111 111 115 118 118 115 114 114 115 113 110 108 107 108 110 111 111 112 114 117 120 122 124 136 152 169 185 219 254 274 299 316 324 336 349 0 14 29 44 66 90 115 128 118 105 107 118 114 108 109 110 111 110 105 102 107 106 92 79 74 73 75 71 43 38 39 28 24 26 21 20 13 358 352 334 319 327 335 325 325 333 335 332 328 321
117 117 120 122 121 118 117 117 116 115 113 112 110 107 108 111 113 114 114 117 123 128 133 142 151 165 183 213 262 302 342 359 11 22 31 42 51 57 66 84 106 122 125 113 105 109 110 101 98 103 111 119 124 122 126 141 142 130 122 135 312 358 324 317 335 24 32 23 26 18 16 3 342 344 338 322 323 327 318 317 323 322 320 323 320
123 127 130 129 127 124 122 120 120 117 114 113 111 108 108 109 110 113 116 118 121 127 133 139 145 148 145 136 103 80 71 61 55 53 54 61 66 71 80 95 114 121 114 104 105 114 112 106 108 112 113 115 114 111 125 149 162 161 178 239 290 309 312 314 317 309 298 300 310 317 317 312 311 317 316 308 311 316 317 318 320 318 318 319 317
119 127 132 136 138 135 131 129 128 128 128 125 120 117 119 119 115 112 114 116 119 125 127 129 131 128 119 111 101 91 85 83 84 86 86 84 83 86 94 102 111 114 112 111 116 120 119 120 123 124 128 133 125 113 144 237 269 290 294 296 302 308 311 313 314 314 312 312 311 310 309 308 307 308 305 302 305 309 309 310 310 309 308 309 310
103 110 122 135 143 146 147 146 142 139 136 130 126 129 133 130 122 117 118 119 121 123 123 123 125 123 116 108 104 105 105 108 115 115 107 102 103 102 100 100 104 107 110 113 118 122 126 130 132 136 151 178 200 267 288 286 292 302 306 305 304 306 308 310 309 311 314 315 311 309 308 307 307 307 305 304 305 306 305 304 306 307 308 308 309
101 101 105 117 132 150 161 157 148 145 141 133 132 138 139 136 135 137 137 137 134 130 129 130 129 125 118 112 115 124 129 129 134 136 133 131 124 109 100 101 109 115 119 122 127 131 132 133 137 144 144 162 294 322 293 291 294 295 294 294 297 300 303 305 306 307 310 310 307 306 307 308 309 308 306 305 308 311 311 310 312 316 317 314 312
116 124 133 136 137 145 158 160 162 164 157 146 147 153 155 160 165 159 153 153 153 154 154 149 140 134 129 124 124 134 143 146 150 151 145 136 120 107 105 114 118 118 125 137 143 147 150 154 164 168 163 202 255 278 290 296 301 302 298 297 297 297 299 301 300 300 302 305 306 307 308 309 309 306 302 301 304 308 309 309 312 317 318 317 321
54 155 187 176 160 150 152 167 176 167 153 149 159 169 181 196 197 188 187 184 178 180 190 187 164 160 172 164 148 148 156 158 151 137 115 96 89 90 97 111 115 116 130 145 150 157 169 187 208 224 246 265 273 282 289 293 293 294 298 302 303 305 308 308 305 304 305 305 306 307 309 310 309 306 303 302 304 308 310 312 316 318 319 321 326
337 333 324 291 159 154 155 164 175 163 153 164 173 174 186 201 208 209 214 213 203 199 208 213 205 203 218 227 215 184 165 158 161 168 159 106 91 89 96 109 120 126 137 147 150 159 194 248 268 272 277 282 284 286 292 297 299 301 305 307 307 312 317 315 311 313 317 316 315 317 318 319 318 315 315 314 313 314 317 318 317 315 313 316 316
339 327 321 323 266 178 177 187 209 222 199 173 167 165 177 191 198 206 212 215 218 221 222 221 220 219 224 231 228 205 191 207 223 221 216 212 201 133 112 129 149 156 159 162 154 150 198 266 283 286 285 288 291 297 302 307 310 313 316 317 315 316 317 313 310 312 312 313 320 325 323 320 319 319 318 316 317 322 326 324 320 319 320 321 320
279 295 302 304 297 273 223 200 217 225 222 212 197 188 194 196 194 200 205 212 224 234 232 229 230 231 230 233 231 215 205 215 230 231 225 225 229 217 168 174 178 159 154 177 190 190 210 241 261 271 280 287 293 299 302 306 314 320 321 318 315 313 312 312 312 308 303 303 317 325 323 323 324 323 320 319 325 332 331 325 326 331 330 328 329
240 256 273 282 287 283 253 235 239 242 243 242 237 233 236 230 218 217 220 220 227 238 242 240 242 243 241 237 234 225 216 220 230 231 228 228 224 213 205 210 203 188 186 203 225 242 258 272 277 277 282 287 289 293 299 308 317 322 319 313 309 306 304 304 305 305 305 309 316 318 320 323 325 325 324 326 330 331 326 324 329 332 330 327 328
249 246 242 245 250 248 239 239 246 250 253 252 246 241 242 240 235 236 241 238 238 245 247 245 251 258 254 243 234 230 228 230 232 232 230 226 217 206 203 205 211 220 232 249 270 284 291 291 280 280 285 291 298 307 312 312 314 319 323 318 314 313 313 309 304 306 312 315 312 315 320 323 324 324 324 326 328 328 328 329 331 329 326 327 327
269 267 257 249 246 243 241 243 244 244 246 248 251 256 261 257 251 251 252 250 250 253 254 254 257 262 261 252 242 234 232 233 236 236 232 225 217 209 200 202 222 250 268 278 287 293 294 280 281 292 301 307 312 317 315 313 320 333 335 321 315 317 315 307 300 299 304 306 307 312 317 317 318 320 322 324 328 329 328 328 327 324 324 326 327
282 274 270 267 263 262 260 259 257 254 255 259 264 267 266 261 256 255 255 254 253 255 257 258 256 255 255 256 254 246 240 236 234 231 228 225 223 212 200 212 242 263 271 278 289 301 304 296 297 308 312 309 311 316 319 323 332 339 328 309 306 306 302 295 292 296 306 309 310 311 313 315 318 320 323 327 329 329 327 326 327 327 326 325 324
278 274 273 270 268 267 269 271 274 276 277 277 277 275 274 272 269 266 263 261 259 259 261 262 260 254 249 249 250 250 245 237 231 229 228 225 219 204 201 223 250 261 267 282 299 309 307 296 294 296 295 297 308 321 329 330 328 320 310 305 305 302 292 289 294 304 310 315 317 314 314 319 319 319 327 332 332 331 331 329 327 327 325 323 324
270 273 275 271 268 266 267 271 276 278 278 278 278 278 278 278 277 276 276 275 273 271 270 270 265 256 246 240 241 243 241 233 228 227 221 213 206 205 217 237 253 259 266 280 291 296 295 295 284 276 281 290 304 310 309 309 307 304 302 302 298 278 258 268 308 320 312 316 321 317 317 323 323 322 331 337 336 333 334 331 327 327 324 321 322
275 273 273 273 274 272 272 275 278 279 281 281 279 278 279 279 278 278 279 279 280 279 276 274 270 261 251 245 242 242 239 232 223 213 206 206 211 218 232 247 250 237 237 249 246 238 250 261 259 267 280 291 298 300 302 301 301 305 304 291 274 258 251 259 288 305 295 306 323 320 317 326 328 323 328 336 337 335 335 331 326 325 323 320 320
277 275 273 274 274 274 275 276 276 277 280 281 279 279 281 281 280 280 279 279 280 280 277 274 272 262 253 249 247 244 240 232 219 207 204 212 220 226 235 244 234 209 207 229 237 226 222 239 253 264 284 298 296 293 292 293 297 299 286 271 267 268 271 277 281 272 269 292 321 322 313 319 325 325 329 334 334 333 333 330 326 325 323 320 320
274 273 272 273 274 275 276 278 278 278 279 280 278 279 280 279 281 284 285 283 283 282 280 278 274 263 254 250 245 237 225 216 212 211 211 215 221 225 229 232 229 215 206 219 233 233 237 258 269 271 286 297 294 290 293 294 289 273 262 264 273 283 289 289 285 278 278 296 316 316 310 312 317 320 323 327 330 333 332 328 325 323 321 319 318
272 273 274 275 277 278 280 281 281 281 281 279 278 279 280 279 280 282 284 286 288 288 286 283 275 264 254 244 235 228 219 212 212 212 210 210 213 216 219 225 232 229 216 217 233 244 252 265 272 276 287 293 291 290 289 280 265 258 262 273 282 290 294 293 292 300 307 306 300 302 306 308 310 315 318 320 324 328 327 324 323 322 318 316 314